Miscellaneous Local Product
Issued by NWS Hastings, NE

Home | Current Version | Previous Version | Graphics & Text | Print | Product List | Glossary On
Versions: 1 2 3 4 5 6 7 8 9 10 11 12 13 14 15 16 17 18 19 20 21 22 23 24 25 26 27 28 29 30 31 32 33 34 35 36 37 38 39 40 41 42 43 44 45 46 47 48 49 50
336
AXUS43 KGID 091302
MISGRI

GID CWA HOURLY WEATHER ROUNDUP
NATIONAL WEATHER SERVICE HASTINGS NE
700 AM CST SAT DEC 09 2017

NOTE: "FAIR" INDICATES FEW OR NO CLOUDS BELOW 12,000 FEET WITH NO
SIGNIFICANT WEATHER AND/OR OBSTRUCTIONS TO VISIBILITY.

...SOUTH CENTRAL NEBRASKA...

CITY           SKY/WX    TMP DP  RH WIND       PRES   REMARKS
GRAND ISLAND   CLEAR     24  21  88 W8        30.12R WCI  15
KEARNEY        PTCLDY    30  23  75 NW9       30.15R WCI  22
HASTINGS       CLOUDY    27  21  78 NW9       30.13R WCI  18
ORD            CLEAR     28  22  78 NW6       30.11R WCI  22
YORK           CLEAR     30  25  80 N9        30.10R WCI  22
AURORA         CLEAR     24  19  83 W6        30.11R WCI  17
LEXINGTON      CLEAR     31  20  65 NW16      30.17R WCI  20
HOLDREGE       CLEAR     32  23  71 NW13      30.14R WCI  22
HEBRON         CLEAR     29  23  78 NW7       30.12S WCI  22

...NEBRASKA PANHANDLE...

CITY           SKY/WX    TMP DP  RH WIND       PRES   REMARKS
CHADRON        CLOUDY    30  16  56 SW6       30.22S WCI  24
ALLIANCE       CLOUDY    22  14  71 W8        30.21R WCI  12
SCOTTSBLUFF    CLOUDY    28  12  51 NW13      30.25S WCI  17
SIDNEY         CLOUDY    31  12  45 NW18      30.23S WCI  19

...WESTERN AND NORTH CENTRAL NEBRASKA...

CITY           SKY/WX    TMP DP  RH WIND       PRES   REMARKS
VALENTINE      CLEAR     28  20  71 W9        30.16R WCI  19
AINSWORTH      CLEAR     29  22  77 NW8       30.14R WCI  21
ONEILL         CLEAR     25  23  92 NW5       30.12R WCI  19
BROKEN BOW     CLEAR     30  21  69 NW12      30.13R WCI  20
IMPERIAL       CLOUDY    28  14  55 W9        30.22R WCI  19
NORTH PLATTE   CLOUDY    19  15  84 NW8       30.19R WCI   9
MCCOOK         CLEAR     28  17  63 NW15      30.19R WCI  16

...EASTERN NEBRASKA...

CITY           SKY/WX    TMP DP  RH WIND       PRES   REMARKS
NORFOLK        PTCLDY    25  22  88 NW10      30.10R WCI  15
SO SIOUX CITY  CLOUDY    27  19  72 N13       30.10R WCI  16
TEKAMAH        CLOUDY    28  20  71 N16       30.09R WCI  16
COLUMBUS       CLEAR     26  22  84 NW12      30.12R WCI  16
ALBION         CLEAR     28  23  82 NW7       30.11R WCI  20
OMAHA EPPLEY   CLOUDY    29  21  72 N13       30.07R WCI  19
OFFUTT AFB     PTCLDY    29  21  73 NW14      30.07R WCI  18
MILLARD        CLEAR     31  24  73 NW13G21   30.08R WCI  21
LINCOLN        CLEAR     29  23  78 NW12      30.11R WCI  19
NEBRASKA CITY  CLEAR     29  26  86 N14G20    30.06R WCI  18
BEATRICE       CLEAR     25  22  88 NW9       30.10R WCI  16
FALLS CITY     CLEAR     29  22  75 NW12      30.06R WCI  19

...NORTHERN KANSAS...

CITY           SKY/WX    TMP DP  RH WIND       PRES   REMARKS
GOODLAND       CLOUDY    29  11  47 NW12      30.22R WCI  19
HILL CITY      CLEAR     30  19  63 W6        30.20R WCI  24
NORTON         SUNNY     28  14  54 SW10      30.18R WCI  19
PHILLIPSBURG   CLEAR     32  19  59 W9        30.18R WCI  24
SMITH CENTER   CLEAR     30  21  69 NW9       30.17R WCI  22
HAYS           CLEAR     31  20  63 NW7       30.19R WCI  24
RUSSELL        CLEAR     30  22  72 NW10      30.16R WCI  21
CONCORDIA      CLEAR     31  23  72 NW9       30.13R WCI  23
SALINA         CLEAR     31  24  75 NW9       30.15R WCI  23
TOPEKA         CLEAR     31  25  78 NW9       30.08R WCI  23



USA.gov is the U.S. government's official web portal to all federal, state and local government web resources and services.